Location: Trebic
(49.2170°N, 15.8830°E)
Time: 15:48:39
(UTC+02:00)

Transit 4A - Pass Details

Date: 03 September 2019
Orbit: 865 x 979 km, 66.8° (Epoch: 22 September)

Event Time Altitude Azimuth Distance (km) Brightness Sun altitude
Rises 18:13:05 0° 250° (WSW) 3,676 12.6 12.6°
Reaches altitude 10° 18:15:57 10° 260° (W) 2,729 13.0 12.2°
Maximum altitude 18:21:40 33° 323° (NW) 1,567 9.7 11.2°
Drops below altitude 10° 18:27:21 10° 27° (NNE) 2,701 10.1 10.3°
Sets 18:30:10 0° 37° (NE) 3,634 10.6 9.8°
